User: anonymous   Login
Location: Unspecified
(0.0000°N, 0.0000°E)
Time: 01:23:47
(UTC+00:00)
Language:

Kosmos-1816 - Orbit

View from above orbital plane
View from above orbital plane
View from above satellite
View from above satellite

Ground track
Ground track

The orbit data is extracted from the following two-line orbital elements,

1 17359U 87009A   18202.56654154  .00000004  00000-0 -11703-4 0  9999
2 17359  82.9237   7.2819 0031791 336.6758  87.7731 13.74430027578671
Epoch (UTC): 21 July 2018 13:35:49
Eccentricity: 0.0031791
inclination: 82.9237°
perigee height: 960 km
apogee height: 1007 km
right ascension of ascending node: 7.2819°
argument of perigee: 336.6758°
revolutions per day: 13.74430027
mean anomaly at epoch: 87.7731°
orbit number at epoch: 57867

The dashed part of the orbit path shows where the satellite is in the earth's shadow,  

DLR